TimeCDT,TemperatureF,Dew PointF,Humidity,Sea Level PressureIn,VisibilityMPH,Wind Direction,Wind SpeedMPH,Gust SpeedMPH,PrecipitationIn,Events,Conditions,WindDirDegrees,DateUTC
12:53 AM,32.0,28.0,85,30.20,10.0,NE,3.5,-,N/A,,Overcast,40,2012-11-03 05:53:00
1:53 AM,30.9,28.0,89,30.21,9.0,ENE,3.5,-,N/A,,Overcast,60,2012-11-03 06:53:00
2:53 AM,32.0,28.9,88,30.20,9.0,ENE,3.5,-,N/A,,Overcast,70,2012-11-03 07:53:00
3:53 AM,32.0,28.9,88,30.20,8.0,ENE,3.5,-,N/A,,Overcast,70,2012-11-03 08:53:00
4:53 AM,32.0,28.9,88,30.20,8.0,ENE,3.5,-,N/A,,Overcast,70,2012-11-03 09:53:00
5:53 AM,32.0,28.9,88,30.19,9.0,East,5.8,-,N/A,,Overcast,80,2012-11-03 10:53:00
6:53 AM,33.1,28.9,85,30.20,9.0,East,3.5,-,N/A,,Overcast,90,2012-11-03 11:53:00
7:53 AM,33.1,28.9,85,30.20,9.0,Calm,Calm,-,N/A,,Overcast,0,2012-11-03 12:53:00
8:53 AM,33.1,30.0,89,30.22,8.0,Calm,Calm,-,N/A,,Overcast,0,2012-11-03 13:53:00
9:53 AM,34.0,30.0,85,30.22,10.0,Calm,Calm,-,N/A,,Overcast,0,2012-11-03 14:53:00
10:53 AM,36.0,30.9,82,30.22,10.0,Calm,Calm,-,N/A,,Overcast,0,2012-11-03 15:53:00
11:53 AM,37.9,32.0,79,30.22,10.0,Calm,Calm,-,N/A,,Overcast,0,2012-11-03 16:53:00
12:53 PM,37.9,30.9,76,30.22,10.0,SSE,4.6,-,N/A,,Overcast,160,2012-11-03 17:53:00
1:34 PM,37.4,30.2,75,30.19,10.0,ESE,4.6,-,N/A,,Overcast,120,2012-11-03 18:34:00
1:53 PM,37.9,30.9,76,30.22,10.0,ESE,5.8,-,N/A,,Overcast,120,2012-11-03 18:53:00
2:53 PM,37.9,30.9,76,30.22,10.0,ESE,3.5,-,N/A,,Overcast,120,2012-11-03 19:53:00
3:13 PM,37.4,30.2,75,30.18,10.0,ESE,3.5,-,N/A,,Overcast,110,2012-11-03 20:13:00
3:53 PM,37.9,30.9,76,30.22,10.0,East,4.6,-,N/A,,Overcast,90,2012-11-03 20:53:00
4:53 PM,37.9,32.0,79,30.22,7.0,ENE,4.6,-,N/A,,Overcast,60,2012-11-03 21:53:00
5:11 PM,37.4,32.0,81,30.19,6.0,ENE,4.6,-,N/A,,Haze,60,2012-11-03 22:11:00
5:21 PM,37.4,32.0,81,30.19,6.0,ENE,3.5,-,N/A,,Haze,60,2012-11-03 22:21:00
5:53 PM,37.0,32.0,82,30.23,6.0,NE,4.6,-,N/A,,Haze,40,2012-11-03 22:53:00
6:53 PM,37.0,33.1,86,30.25,10.0,North,4.6,-,N/A,,Overcast,360,2012-11-03 23:53:00
7:53 PM,37.0,33.1,86,30.26,10.0,North,9.2,-,N/A,,Overcast,360,2012-11-04 00:53:00
8:08 PM,35.6,32.0,87,30.22,10.0,North,9.2,-,N/A,,Overcast,360,2012-11-04 01:08:00
8:53 PM,35.1,30.9,85,30.26,10.0,North,8.1,-,N/A,,Overcast,360,2012-11-04 01:53:00
9:49 PM,35.6,30.2,81,30.23,10.0,NNE,6.9,-,N/A,,Overcast,30,2012-11-04 02:49:00
9:53 PM,35.1,30.9,85,30.27,10.0,NNE,5.8,-,N/A,,Overcast,20,2012-11-04 02:53:00
10:48 PM,33.8,30.2,87,30.23,8.0,NNW,6.9,-,N/A,,Overcast,340,2012-11-04 03:48:00
10:53 PM,34.0,30.9,89,30.27,8.0,North,6.9,-,N/A,,Overcast,350,2012-11-04 03:53:00
11:53 PM,34.0,30.9,89,30.26,8.0,NNE,6.9,-,N/A,,Overcast,20,2012-11-04 04:53:00